This is the latest recevied weather packets stored in our database for station/object TA3MHA. If no packets are shown the sender has not sent any weather packets the latest 10 day(s).
| Time | Temp. | Humidity | Pressure | Rain* | Wind** | Luminosity | Snow |
|---|---|---|---|---|---|---|---|
| 1776944701 | 11.11° C | 66% | - | 0 mm | - | 255 W/m² | - |
| 1776944401 | 11.11° C | 66% | - | 0 mm | - | 254 W/m² | - |
| 1776944101 | 11.67° C | 67% | - | 0 mm | - | 233 W/m² | - |
| 1776943801 | 11.67° C | 65% | - | 0 mm | - | 285 W/m² | - |
| 1776943501 | 11.67° C | 64% | - | 0 mm | - | 287 W/m² | - |
| 1776943201 | 11.67° C | 65% | - | 0 mm | - | 308 W/m² | - |
| 1776942901 | 11.67° C | 66% | - | 0 mm | - | 270 W/m² | - |
| 1776942601 | 11.11° C | 65% | - | 0 mm | - | 281 W/m² | - |
| 1776942301 | 11.11° C | 68% | - | 0 mm | - | 338 W/m² | - |
| 1776942000 | 11.11° C | 68% | - | 0 mm | - | 369 W/m² | - |
| 1776941700 | 11.11° C | 69% | - | 0 mm | - | 368 W/m² | - |
| 1776941401 | 10.56° C | 71% | - | 0 mm | - | 312 W/m² | - |
| 1776941101 | 11.67° C | 70% | - | 0 mm | - | 274 W/m² | - |
| 1776940801 | 11.11° C | 69% | - | 0 mm | - | 938 W/m² | - |
| 1776940501 | 11.11° C | 68% | - | 0 mm | - | 468 W/m² | - |
| 1776940201 | 11.11° C | 69% | - | 0 mm | - | 384 W/m² | - |
| 1776939901 | 11.67° C | 73% | - | 0 mm | - | 394 W/m² | - |
| 1776939601 | 11.11° C | 73% | - | 0 mm | - | 107 W/m² | - |
| 1776939300 | 10.56° C | 72% | - | 0 mm | - | 434 W/m² | - |
| 1776939001 | 10.56° C | 73% | - | 0 mm | - | 471 W/m² | - |
| 1776938701 | 10.56° C | 72% | - | 0 mm | - | 416 W/m² | - |
| 1776938401 | 10.56° C | 71% | - | 0 mm | - | 331 W/m² | - |
| 1776938101 | 10.56° C | 72% | - | 0 mm | - | 396 W/m² | - |
| 1776937800 | 10.56° C | 71% | - | 0 mm | - | 380 W/m² | - |
| 1776937500 | 10.56° C | 72% | - | 0 mm | - | 318 W/m² | - |
* Rain latest hour (hover to see other rain measurements)
** Current wind speed in m/s (hover to see current wind gust speed)